Notices

What's New in latest Release from April 7th, 2021:

- Updated Glossary, including Speed of Maximum Gust, and Total Hourly Precipitation

- Updated national and regional climate services offices contacts and prices information

- Addition of station inventory lists for 1981-2010, 1971-2000, and 1961-1990 Normals.

If you haven't already, please take our survey and provide feedback about our website: https://eccc.sondage-survey.ca/f/LanguageSelection.aspx?s=442ca660-fcf1-47c0-95a9-59707d6fd709

Hourly Data Report for December 25, 2016

CARBERRY CS
MANITOBA

49°54'20.900" N
99°21'26.800" W
383.50 m
5010547
71170
WZE

Download Data

Hourly Data (December 2016)
Hourly Data Report for December 25, 2016
TIME
LST
Temp Definition
°C
Dew Point Definition
°C
Rel Hum Definition
%
Precip. Amount Definition
mm

Wind Dir Definition
10's deg

Wind Spd Definition
km/h
Visibility Definition
km
Stn Press Definition
kPa
Hmdx Definition


Wind Chill Definition


Weather Definition


00:00 -18.2 -20.8 80 0.0 5 19   98.30   -28 LegendNANA
01:00 -17.6 -20.2 80 0.0 4 22   98.26   -28 LegendNANA
02:00 -17.1 -19.8 80 0.0 5 20   98.19   -27 LegendNANA
03:00 -16.2 -19.3 77 0.0 5 24   98.22   -27 LegendNANA
04:00 -15.9 -19.0 77 0.0 6 24   98.09   -26 LegendNANA
05:00 -15.6 -18.5 78 0.0 6 26   98.02   -26 LegendNANA
06:00 -15.5 -18.3 79 0.0 6 29   97.96   -27 LegendNANA
07:00 -15.7 -18.2 81 0.0 6 29   97.82   -27 LegendNANA
08:00 -15.7 -17.8 84 0.0 6 29   97.72   -27 LegendNANA
09:00 -15.4 -17.6 84 0.0 6 22   97.78   -25 LegendNANA
10:00 -14.9 -17.5 81 0.2 6 20   97.79   -24 LegendNANA
11:00 -14.6 -16.7 84 0.0 5 17   97.78   -23 LegendNANA
12:00 -14.2 -16.3 84 0.0 4 22   97.63   -24 LegendNANA
13:00 -13.9 -16.2 83 0.0 4 26   97.47   -24 LegendNANA
14:00 -13.7 -15.9 84 0.0 4 24   97.44   -23 LegendNANA
15:00 -13.5 -15.7 84 0.0 3 27   97.29   -24 LegendNANA
16:00 -13.2 -15.2 85 0.0 4 28   97.26   -23 LegendNANA
17:00 -13.0 -14.9 86 0.0 4 32   97.14   -24 LegendNANA
18:00 -12.7 -14.6 86 0.0 4 31   97.04   -23 LegendNANA
19:00 -12.6 -14.6 85 0.8 3 30   96.84   -23 LegendNANA
20:00 -12.3 -14.4 85 0.6 3 31   96.64   -23 LegendNANA
21:00 -12.0 -13.9 86 0.6 3 33   96.47   -23 LegendNANA
22:00 -11.9 -13.9 85 0.6 3 32   96.27   -22 LegendNANA
23:00 -12.1 -14.0 86 0.8 2 34   96.07   -23 LegendNANA

Notes on Data Quality.

Legend

  • E = Estimated
  • M = Missing
  • NA = Not Available*
  • [empty] = Indicates an unobserved value
Date modified: